Regional Weather Roundup
Issued by NWS Upton, NY

Home | Current Version | Previous Version | Text Only | Print | Product List | Glossary On
Versions: 1 2 3 4 5 6 7 8 9 10 11 12 13 14 15 16 17 18 19 20 21 22 23 24 25 26 27 28 29
000
ASUS41 KOKX 290920
RWROKX

REGIONAL WEATHER ROUNDUP
NATIONAL WEATHER SERVICE NEW YORK NY
500 AM EDT MON AUG 29 2016

NOTE: "FAIR" INDICATES FEW OR NO CLOUDS BELOW 12,000 FEET WITH NO
SIGNIFICANT WEATHER AND/OR OBSTRUCTIONS TO VISIBILITY.

NYZ071-072-176-178-NJZ106-104-291000-
NEW YORK CITY METRO AREA

CITY           SKY/WX    TMP DP  RH WIND       PRES   REMARKS
Central Park   MOCLDY    75  64  68 VRB6      30.14F
LaGuardia APRT MOCLDY    77  64  64 SW6       30.10F
Kennedy INTL   MOCLDY    74  70  87 SW8       30.12F
Newark/Liberty MOCLDY    73  65  75 SW8       30.11F
Bronx Bot Gard   N/A     75  63  64 SW8       30.11F
Wall St Helipt MOSUNNY   75  68  78 W7        30.12F
Teterboro      CLOUDY    74  64  71 SW6       30.10F
$$

NYZ177-179-078>081-291000-
LONG ISLAND NEW YORK

CITY           SKY/WX    TMP DP  RH WIND       PRES   REMARKS
Farmingdale    MOCLDY    75  67  76 SW6       30.11F
MacArthur/ISP  CLOUDY    74  68  81 SW7       30.10F
Shirley        MOCLDY    74  69  85 SW5       30.12F
Riverhead      NOT AVBL
Westhampton    CLOUDY    73  68  84 SW7       30.13F
Southampton      N/A     73  70  88 SW3       30.07
Bridgehampton    N/A     68  64  88 CALM      30.10
East Hampton   CLOUDY    70  65  85 CALM      30.11F
Montauk          N/A     72  67  84 VRB3      30.12F
$$

NYZ052-065-067-291000-
HUDSON VALLEY

CITY           SKY/WX    TMP DP  RH WIND       PRES   REMARKS
White Plains   PTCLDY    72  63  73 VRB3      30.12S
Newburgh       MOCLDY    72  66  83 CALM      30.12S
Montgomery     MOCLDY    70  66  87 SW6       30.11S
Poughkeepsie   CLOUDY    70  65  84 E3        30.09S
Albany         CLOUDY    71  64  78 S5        30.09R
$$

NJZ001-105-106-008-010-013-015-019>022-104-291000-
NEW JERSEY

CITY           SKY/WX    TMP DP  RH WIND       PRES   REMARKS
Newark/Liberty MOCLDY    73  65  75 SW8       30.11F
Teterboro      CLOUDY    74  64  71 SW6       30.10F
Caldwell       PTCLDY    71  65  81 VRB3      30.12F
Morristown     CLEAR     68  64  88 CALM      30.12F
Somerville     CLEAR     66  63  90 CALM      30.11F
Linden         FAIR      72  65  78 CALM      30.13F
Sussex         MOCLDY    68  66  93 SW3       30.13S
Abdover          N/A     68  64  87 CALM      30.14S
Trenton        CLEAR     70  65  84 CALM      30.12F
Millville      CLEAR     64  64 100 CALM      30.13F
Atlantic City  CLEAR     67  64  90 CALM      30.13S
Wrightstown    CLEAR     68  66  95 MISG      30.10F
Toms River     CLEAR     63  61  93 CALM      30.13F
Belmar         PTCLDY    69  66  90 SW5       30.13F
$$

PAZ047>061-062-071-291000-
EASTERN PENNSYLVANIA

CITY           SKY/WX    TMP DP  RH WIND       PRES   REMARKS
Philadelphia   PTCLDY    73  69  87 SW5       30.13S
Allentown      CLOUDY    70  64  81 CALM      30.13F
Scranton       CLOUDY    73  66  78 CALM      30.15S
$$

CTZ002-004>006-009-010-012-RIZ004-006-007-MAZ004-011-015-291000-
SOUTHERN NEW ENGLAND
 IN CT

CITY           SKY/WX    TMP DP  RH WIND       PRES   REMARKS
Bradley INTL   CLOUDY    70  65  84 S7        30.10S
Hartford       PTCLDY    73  67  81 S5        30.09F
Danbury        PTCLDY    70  64  81 VRB5      30.12F
Wtrbury/Oxford   N/A     70  63  78 SW3       30.13F
Bridgeport     MOCLDY    76  67  73 SW9       30.10F
Meriden        MOCLDY    73  66  78 CALM      30.10F
New Haven      MOCLDY    75  67  76 SW7       30.11F
Chester        PTSUNNY   72  68  88 SW7       30.11S
Groton         CLOUDY    74  67  78 SW9       30.09F
Wilimantic     MOCLDY    68  66  93 CALM      30.11F

 IN RI

CITY           SKY/WX    TMP DP  RH WIND       PRES   REMARKS
Providence     MOCLDY    69  64  84 S5        30.10F
Block Island   CLOUDY    71  67  87 SW9       30.12F
Westerly       CLOUDY    73  65  75 SW5       30.11F
 IN MA

CITY           SKY/WX    TMP DP  RH WIND       PRES   REMARKS
Boston         CLOUDY    71  62  73 SW13      30.07F
Worcester      PTCLDY    67  61  81 W15       30.11S
Westfield      CLOUDY    69  65  86 CALM      30.09S
Provincetown   MOCLDY    68  66  93 SW12      30.09F
Nantucket      PTCLDY    69  67  93 SW9       30.12S
$$

ANZ330-335-338-340-345-350-353-355-291000-
COASTAL MARINE OBSERVATIONS


STATION/POSITION TIME  SKY/WX   TEMP    WIND        PRES    VSBY  WAVE
                                AIR SEA DIR/SP/G                  HT/PER
                 (UTC)          (F)     (DEG/KT/KT) (MB)    (MI)  (FT/S)
NY HARB ENTRANCE 0850            74 75  230/ 10/ 10 1019.4          3/14
20S FIRE ISLAND  0850            75 75  240/  6/  8 1019.5          3/14
GREAT SOUTH BAY  NOT AVBL
23 SSW MONTAUK P 0850            75 76  250/ 12/ 14 1020.0          2/14
15 E BARNEGAT LI 0800               76                N/A           3/ 8
HUDSON CANYON    0850            75 78              1019.9          3/14
KINGS POINT      0800            76 77              1019.8
EXECUTION ROCKS  0900            76     220/  8/ 10   N/A
CENTRAL LI SOUND 0800            74 76  230/ 10/ 12   N/A           1/ 2
EASTERN LI SOUND 0800            73 72  250/ 10/ 12   N/A
ROBBINS REEF     0800            74     230/  6/  7 1019.3
$$


>>>>>>>>>>>>>>>>>>>>>>>>>>>> KEY <<<<<<<<<<<<<<<<<<<<<<<<<<<
>                                                          <
>     SKY/WX - Sky Condition/Present Weather               <
>     TMP    - Temperature in Fahrenheit                   <
>     DP     - Dew Point in Fahrenheit                     <
>     RH     - Relative Humidity in Percent                <
>     WIND   - Direction (from) and Speed in MPH           <
>     PRES   - Mean Sea Level Pressure (inches of Hg)      <
>     WCI    - Wind Chill Index                            <
>     VSB    - VISIBILITY IN MILES                         <
>     HX     - HEAT INDEX                                  <
>     TC     - TEMPERATURE IN CELSIUS                      <
>     VRB    - VARIABLE WIND DIRECTION                     <
>                                                          <
>>>>>>>>>>>>>>>>>>>>>>>>>>>> KEY <<<<<<<<<<<<<<<<<<<<<<<<<<<




USA.gov is the U.S. government's official web portal to all federal, state and local government web resources and services.